Newton, IA

5:07 PM CDT on May 24, 2018 (GMT -0500)
Newton Municipal

Weather History for KTNU - October, 2013

Change the Weather History Date:

Saturday, October 19, 2013

  Actual Average Record
Temperature  
Mean Temperature 44 °F -  
Max Temperature 55 °F 59 °F 86 °F (2003)
Min Temperature 33 °F 37 °F 13 °F (1972)
Degree Days  
Heating Degree Days 21    
Moisture  
Dew Point 32 °F    
Average Humidity 65    
Maximum Humidity 93    
Minimum Humidity 38    
Precipitation  
Precipitation 0.00 in - - ()
Sea Level Pressure  
Sea Level Pressure 29.86 in    
Wind  
Wind Speed 9 mph (WSW)    
Max Wind Speed 18 mph    
Max Gust Speed 25 mph    
Visibility 10 miles    
Events      
Averages and records for this station are not official NWS values.
T = Trace of Precipitation, MM = Missing Value Source: NWS Daily Summary

Daily Weather History Graph

Daily Weather History Graph

Search for Another Location

Airport or City:

Astronomy

Oct. 19, 2013 Rise Set
Actual Time 7:29 AM CDT 6:24 PM CDT
Civil Twilight 7:00 AM CDT 6:52 PM CDT
Nautical Twilight 6:28 AM CDT 7:24 PM CDT
Astronomical Twilight 5:56 AM CDT 7:56 PM CDT
Moon 6:51 PM CDT (10/19) 8:08 AM CDT (10/19)
Length of Visible Light 11h 51m
Length of Day
10h 55m
Waxing Gibbous, 99% of the Moon is Illuminated
Oct 19
Waxing Gibbous
Oct 26
Last Quarter
Nov 3
New
Nov 9
First Quarter
Nov 17
Full

Hourly Weather History & Observations

Time (CDT) Temp. Windchill Dew Point Humidity Pressure Visibility Wind Dir Wind Speed Gust Speed Precip Events Conditions
12:15 AM 35.6 °F 29.9 °F 30.2 °F 81% 29.95 in 10.0 mi WSW 6.9 mph - N/A   Clear
12:35 AM 35.6 °F 29.9 °F 30.2 °F 81% 29.95 in 10.0 mi SW 6.9 mph - N/A   Clear
12:55 AM 37.4 °F 31.4 °F 32.0 °F 81% 29.94 in 10.0 mi SW 8.1 mph - N/A   Mostly Cloudy
1:15 AM 39.2 °F 33.6 °F 32.0 °F 75% 29.93 in 10.0 mi WSW 8.1 mph - N/A   Overcast
1:35 AM 37.4 °F 32.1 °F 32.0 °F 81% 29.93 in 10.0 mi WSW 6.9 mph - N/A   Overcast
1:55 AM 37.4 °F 32.1 °F 32.0 °F 81% 29.93 in 10.0 mi WSW 6.9 mph - N/A   Overcast
2:15 AM 39.2 °F 32.5 °F 32.0 °F 75% 29.92 in 10.0 mi SW 10.4 mph - N/A   Overcast
2:35 AM 41.0 °F 35.2 °F 32.0 °F 70% 29.92 in 10.0 mi SW 9.2 mph - N/A   Overcast
2:55 AM 41.0 °F 34.7 °F 32.0 °F 70% 29.92 in 10.0 mi WSW 10.4 mph - N/A   Overcast
3:15 AM 41.0 °F 35.2 °F 32.0 °F 70% 29.91 in 10.0 mi WSW 9.2 mph - N/A   Overcast
3:35 AM 41.0 °F 35.2 °F 32.0 °F 70% 29.90 in 10.0 mi WSW 9.2 mph - N/A   Overcast
3:55 AM 41.0 °F 35.8 °F 32.0 °F 70% 29.90 in 10.0 mi WSW 8.1 mph - N/A   Overcast
4:15 AM 39.2 °F 33.0 °F 32.0 °F 75% 29.90 in 10.0 mi WSW 9.2 mph - N/A   Overcast
4:35 AM 37.4 °F 32.1 °F 32.0 °F 81% 29.89 in 10.0 mi WSW 6.9 mph - N/A   Scattered Clouds
4:55 AM 37.4 °F 32.1 °F 32.0 °F 81% 29.89 in 10.0 mi WSW 6.9 mph - N/A   Mostly Cloudy
5:15 AM 37.4 °F 32.1 °F 32.0 °F 81% 29.89 in 10.0 mi WSW 6.9 mph - N/A   Overcast
5:35 AM 37.4 °F 32.1 °F 32.0 °F 81% 29.89 in 10.0 mi WSW 6.9 mph - N/A   Overcast
5:55 AM 35.6 °F 29.9 °F 30.2 °F 81% 29.89 in 10.0 mi SW 6.9 mph - N/A   Scattered Clouds
6:15 AM 33.8 °F 27.0 °F 30.2 °F 87% 29.89 in 10.0 mi SW 8.1 mph - N/A   Clear
6:35 AM 33.8 °F 27.0 °F 30.2 °F 87% 29.89 in 10.0 mi SW 8.1 mph - N/A   Clear
6:55 AM 33.8 °F 27.0 °F 30.2 °F 87% 29.89 in 10.0 mi SW 8.1 mph - N/A   Clear
7:15 AM 33.8 °F 27.0 °F 30.2 °F 87% 29.88 in 10.0 mi WSW 8.1 mph - N/A   Clear
7:35 AM 33.8 °F 26.4 °F 30.2 °F 87% 29.89 in 10.0 mi WSW 9.2 mph - N/A   Clear
7:55 AM 33.8 °F 26.4 °F 32.0 °F 93% 29.88 in 10.0 mi WSW 9.2 mph - N/A   Clear
8:15 AM 35.6 °F 28.6 °F 32.0 °F 87% 29.88 in 10.0 mi SW 9.2 mph - N/A   Clear
8:35 AM 35.6 °F 28.0 °F 32.0 °F 87% 29.88 in 9.0 mi WSW 10.4 mph - N/A   Clear
8:55 AM 37.4 °F 29.8 °F 33.8 °F 87% 29.88 in 10.0 mi SW 11.5 mph - N/A   Mostly Cloudy
9:15 AM 39.2 °F 32.5 °F 33.8 °F 81% 29.88 in 9.0 mi SW 10.4 mph - N/A   Mostly Cloudy
9:35 AM 41.0 °F 34.3 °F 33.8 °F 76% 29.87 in 10.0 mi WSW 11.5 mph - N/A   Partly Cloudy
9:55 AM 42.8 °F 36.6 °F 33.8 °F 70% 29.87 in 10.0 mi WSW 11.5 mph - N/A   Partly Cloudy
10:15 AM 44.6 °F 37.8 °F 33.8 °F 66% 29.86 in 10.0 mi SW 15.0 mph - N/A   Clear
10:35 AM 46.4 °F 40.1 °F 33.8 °F 62% 29.85 in 10.0 mi SW 15.0 mph - N/A   Partly Cloudy
10:55 AM 48.2 °F - 32.0 °F 54% 29.85 in 10.0 mi WSW 12.7 mph 21.9 mph N/A   Mostly Cloudy
11:15 AM 48.2 °F - 32.0 °F 54% 29.85 in 10.0 mi WSW 16.1 mph - N/A   Overcast
11:35 AM 48.2 °F - 32.0 °F 54% 29.85 in 10.0 mi WSW 15.0 mph - N/A   Overcast
11:55 AM 48.2 °F - 32.0 °F 54% 29.84 in 10.0 mi WSW 12.7 mph - N/A   Overcast
1:55 PM 53.6 °F - 32.0 °F 44% 29.80 in 10.0 mi WSW 13.8 mph - N/A   Mostly Cloudy
2:15 PM 53.6 °F - 32.0 °F 44% 29.79 in 10.0 mi West 18.4 mph - N/A   Mostly Cloudy
2:35 PM 53.6 °F - 32.0 °F 44% 29.79 in 10.0 mi West 15.0 mph 25.3 mph N/A   Overcast
2:55 PM 53.6 °F - 32.0 °F 44% 29.79 in 10.0 mi West 15.0 mph 24.2 mph N/A   Mostly Cloudy
3:15 PM 53.6 °F - 32.0 °F 44% 29.79 in 10.0 mi West 13.8 mph 21.9 mph N/A   Mostly Cloudy
3:35 PM 53.6 °F - 32.0 °F 44% 29.79 in 10.0 mi West 11.5 mph - N/A   Overcast
3:55 PM 53.6 °F - 33.8 °F 47% 29.79 in 10.0 mi West 5.8 mph 12.7 mph N/A   Overcast
4:15 PM 55.4 °F - 32.0 °F 41% 29.78 in 10.0 mi West 10.4 mph 16.1 mph N/A   Overcast
4:35 PM 55.4 °F - 32.0 °F 41% 29.79 in 10.0 mi West 13.8 mph 23.0 mph N/A   Mostly Cloudy
4:55 PM 53.6 °F - 32.0 °F 44% 29.79 in 10.0 mi WNW 13.8 mph - N/A   Partly Cloudy
5:15 PM 55.4 °F - 32.0 °F 41% 29.80 in 10.0 mi West 10.4 mph - N/A   Clear
5:35 PM 55.4 °F - 30.2 °F 38% 29.80 in 10.0 mi West 12.7 mph - N/A   Partly Cloudy
5:55 PM 53.6 °F - 30.2 °F 41% 29.81 in 10.0 mi West 11.5 mph 19.6 mph N/A   Partly Cloudy
6:15 PM 51.8 °F - 30.2 °F 44% 29.81 in 10.0 mi West 8.1 mph - N/A   Partly Cloudy
6:35 PM 50.0 °F - 30.2 °F 47% 29.81 in 10.0 mi West 5.8 mph - N/A   Clear
6:55 PM 50.0 °F - 30.2 °F 47% 29.81 in 10.0 mi West 4.6 mph - N/A   Clear
7:15 PM 48.2 °F - 32.0 °F 54% 29.82 in 10.0 mi WSW 5.8 mph - N/A   Clear
7:35 PM 46.4 °F 42.9 °F 30.2 °F 53% 29.82 in 10.0 mi SW 6.9 mph - N/A   Clear
7:55 PM 44.6 °F 41.4 °F 30.2 °F 57% 29.82 in 10.0 mi WSW 5.8 mph - N/A   Clear
8:15 PM 44.6 °F 40.7 °F 30.2 °F 57% 29.83 in 10.0 mi WSW 6.9 mph - N/A   Clear
8:35 PM 44.6 °F 41.4 °F 30.2 °F 57% 29.83 in 10.0 mi West 5.8 mph - N/A   Clear
8:55 PM 44.6 °F 41.4 °F 30.2 °F 57% 29.83 in 10.0 mi West 5.8 mph - N/A   Partly Cloudy
9:15 PM 44.6 °F 43.1 °F 30.2 °F 57% 29.83 in 10.0 mi West 3.5 mph - N/A   Mostly Cloudy
9:35 PM 44.6 °F 43.1 °F 30.2 °F 57% 29.83 in 10.0 mi WSW 3.5 mph - N/A   Overcast
9:55 PM 44.6 °F 42.2 °F 30.2 °F 57% 29.84 in 10.0 mi West 4.6 mph - N/A   Overcast
10:15 PM 46.4 °F 42.9 °F 32.0 °F 57% 29.84 in 10.0 mi NW 6.9 mph - N/A   Overcast
10:35 PM 44.6 °F 41.4 °F 33.8 °F 66% 29.84 in 10.0 mi NW 5.8 mph - N/A   Overcast
10:55 PM 46.4 °F 42.4 °F 33.8 °F 62% 29.85 in 10.0 mi North 8.1 mph - N/A   Overcast
11:15 PM 44.6 °F 40.2 °F 33.8 °F 66% 29.85 in 10.0 mi NNE 8.1 mph - N/A   Overcast
11:35 PM 44.6 °F 41.4 °F 33.8 °F 66% 29.84 in 10.0 mi NNE 5.8 mph - N/A   Overcast
11:55 PM 44.6 °F 43.1 °F 33.8 °F 66% 29.85 in 10.0 mi ENE 3.5 mph - N/A   Overcast